Columbus, OH

6:25 AM EDT on April 24, 2017 (GMT -0400)
Port Columbus International

Weather History for KCMH - January, 2013

Change the Weather History Date:

Friday, January 18, 2013

  Actual Average Record
Temperature  
Mean Temperature 27 °F 29 °F  
Max Temperature 35 °F 36 °F 68 °F (1996)
Min Temperature 19 °F 22 °F -17 °F (1994)
Degree Days  
Heating Degree Days 38 36  
Month to date heating degree days 558 641  
Since 1 July heating degree days 2459 2632  
Cooling Degree Days 0 0  
Month to date cooling degree days 0 0  
Year to date cooling degree days 0 0  
Moisture  
Dew Point 16 °F    
Average Humidity 62    
Maximum Humidity 77    
Minimum Humidity 47    
Precipitation  
Precipitation 0.00 in 0.09 in 0.79 in (1927)
Month to date precipitation 1.00 1.64  
Year to date precipitation 1.00 1.64  
Snow  
Snow 0.00 in 0.40 in 3.10 in (1985)
Month to date snowfall 0.4 5.4  
Since 1 July snowfall 16.1 11.5  
Snow Depth 0.00 in    
Sea Level Pressure  
Sea Level Pressure 30.42 in    
Wind  
Wind Speed 10 mph (SSW)    
Max Wind Speed 21 mph    
Max Gust Speed 25 mph    
Visibility 10 miles    
Events      
T = Trace of Precipitation, MM = Missing Value Source: NWS Daily Summary

Daily Weather History Graph

Daily Weather History Graph

Search for Another Location

Airport or City:

Trip Planner

Search our weather history database for the weather conditions in past years. The results will help you decide how hot, cold, wet, or windy it might be!

Date:

Astronomy

Jan. 18, 2013 Rise Set
Actual Time 7:50 AM EST 5:34 PM EST
Civil Twilight 7:20 AM EST 6:04 PM EST
Nautical Twilight 6:47 AM EST 6:37 PM EST
Astronomical Twilight 6:15 AM EST 7:09 PM EST
Moon 11:28 AM EST (1/18) 12:23 AM EST (1/18)
Length of Visible Light 10h 43m
Length of Day
9h 44m
Waxing Crescent, 47% of the Moon is Illuminated
Jan 18
Waxing Crescent
Jan 18
First Quarter
Jan 26
Full
Feb 3
Last Quarter
Feb 10
New

Hourly Weather History & Observations

Time (EST) Temp. Windchill Dew Point Humidity Pressure Visibility Wind Dir Wind Speed Gust Speed Precip Events Conditions
12:51 AM 24.1 °F 12.0 °F 10.0 °F 55% 30.39 in 10.0 mi NNW 13.8 mph - N/A   Clear
1:51 AM 24.1 °F 13.7 °F 10.0 °F 55% 30.43 in 10.0 mi NW 10.4 mph - N/A   Clear
2:51 AM 23.0 °F 15.8 °F 10.0 °F 58% 30.45 in 10.0 mi NW 5.8 mph - N/A   Clear
3:51 AM 21.0 °F 14.6 °F 10.9 °F 65% 30.47 in 10.0 mi West 4.6 mph - N/A   Clear
4:51 AM 21.0 °F 16.2 °F 12.0 °F 68% 30.48 in 10.0 mi WNW 3.5 mph - N/A   Clear
5:51 AM 21.0 °F 16.2 °F 12.0 °F 68% 30.48 in 10.0 mi West 3.5 mph - N/A   Clear
6:51 AM 21.9 °F 15.7 °F 12.9 °F 68% 30.49 in 10.0 mi WSW 4.6 mph - N/A   Clear
7:51 AM 19.9 °F 14.9 °F 14.0 °F 78% 30.50 in 10.0 mi SE 3.5 mph - N/A   Clear
8:51 AM 21.2 °F 14.9 °F 15.8 °F 80% 30.49 in 10.0 mi South 4.6 mph - N/A   Partly Cloudy
9:51 AM 26.1 °F 20.5 °F 16.0 °F 66% 30.54 in 10.0 mi SW 4.6 mph - N/A   Clear
10:51 AM 28.0 °F 24.2 °F 15.1 °F 58% 30.53 in 10.0 mi SW 3.5 mph - N/A   Partly Cloudy
11:51 AM 30.9 °F 22.8 °F 14.0 °F 50% 30.50 in 10.0 mi SSW 9.2 mph - N/A   Partly Cloudy
12:51 PM 33.1 °F 24.4 °F 15.1 °F 48% 30.48 in 10.0 mi SSW 11.5 mph - N/A   Clear
1:51 PM 33.1 °F 23.0 °F 16.0 °F 50% 30.45 in 10.0 mi SSW 15.0 mph 20.7 mph N/A   Partly Cloudy
2:51 PM 34.0 °F 24.6 °F 17.1 °F 50% 30.42 in 10.0 mi SSW 13.8 mph 21.9 mph N/A   Partly Cloudy
3:51 PM 35.1 °F 25.5 °F 18.0 °F 50% 30.40 in 10.0 mi South 15.0 mph 23.0 mph N/A   Mostly Cloudy
4:51 PM 34.0 °F 23.0 °F 18.0 °F 52% 30.39 in 10.0 mi South 18.4 mph 25.3 mph N/A   Mostly Cloudy
5:51 PM 33.1 °F 23.9 °F 19.9 °F 59% 30.38 in 10.0 mi South 12.7 mph - N/A   Scattered Clouds
6:51 PM 32.0 °F 23.0 °F 21.0 °F 64% 30.37 in 10.0 mi South 11.5 mph - N/A   Partly Cloudy
7:51 PM 32.0 °F 23.0 °F 21.9 °F 66% 30.35 in 10.0 mi South 11.5 mph - N/A   Clear
8:51 PM 32.0 °F 23.0 °F 23.0 °F 69% 30.32 in 10.0 mi South 11.5 mph - N/A   Partly Cloudy
9:51 PM 33.1 °F 23.9 °F 23.0 °F 66% 30.29 in 10.0 mi South 12.7 mph - N/A   Scattered Clouds
10:51 PM 33.8 °F 24.3 °F 24.8 °F 70% 30.23 in 10.0 mi South 13.8 mph - N/A   Partly Cloudy
11:51 PM 34.0 °F 24.6 °F 23.0 °F 64% 30.24 in 10.0 mi South 13.8 mph - N/A   Partly Cloudy